Tracking 18852 objects as of 24-Nov-2017
HD Live streaming from Space Station
objects crossing your sky now

FENGYUN 1C DEB

Track FENGYUN 1C DEB now!
10-day predictions


NORAD ID: 33621
Int'l Code: 1999-025DDE
Perigee: 636.4 km
Apogee: 1,084.8 km
Inclination: 98.2 °
Period: 102.0 minutes
Semi major axis: 7231 km
RCS: 0.015 m2 (small)
Launch date: May 10, 1999
Source: People's Republic of China (PRC)
Launch site: Taiyaun Space Center, China (TSC)

Note: This is SATELLITE DEBRIS
aabbcc
Your satellite tracking list
Your tracking list is empty




NASA's NSSDC Master Catalog

Two Line Element Set (TLE):
1 33621U 99025DDE 17327.39905155 +.00000251 +00000-0 +10261-3 0  9998
2 33621 098.1899 017.5702 0309986 180.8376 179.2320 14.11732776226846
Source of the keplerian elements: AFSPC